QTR422 HRYR-OTHH

Flight info

Callsign QTR422
Flight time N/A
Altitude 31000
Route ALSAR1D ALSAR UL432 NABRO/N0474F330 UL432 EKBUL L432 GWZ UL432 BOPSA/N0469F340 DCT ZULAC/N0469F330 DCT LABNI DCT ABH/N0463F350 DCT GERUG L564 RIDIT/N0464F290 L564 RAGPO Y432 LADBO T142 LAEEB
Aircraft A321/M-SDE3FGHIRWY/LB1

Departure

Time 2026-04-21 13:36
Airport Kigali International Airport (HRYR)

Arrival

Time N/A
Airport Hamad International Airport (OTHH)
Time Latitude Longitude Altitude Speed Heading
2026-04-21 12:49 -1.96435 30.13460 4885 ft 0 kts 328°
2026-04-21 13:27 -1.96447 30.13468 4884 ft 4 kts 328°
2026-04-21 13:27 -1.96470 30.13482 4886 ft 4 kts 328°
2026-04-21 13:27 -1.96493 30.13496 4885 ft 4 kts 328°
2026-04-21 13:27 -1.96512 30.13508 4887 ft 0 kts 328°
2026-04-21 13:30 -1.96511 30.13507 4887 ft 0 kts 324°
2026-04-21 13:31 -1.96509 30.13498 4887 ft 3 kts 283°
2026-04-21 13:31 -1.96529 30.13476 4888 ft 5 kts 194°
2026-04-21 13:31 -1.96569 30.13475 4891 ft 7 kts 181°
2026-04-21 13:31 -1.96605 30.13425 4888 ft 14 kts 275°
2026-04-21 13:32 -1.96589 30.13317 4883 ft 16 kts 279°
2026-04-21 13:32 -1.96571 30.13201 4883 ft 19 kts 279°
2026-04-21 13:32 -1.96549 30.13072 4885 ft 16 kts 277°
2026-04-21 13:32 -1.96611 30.12981 4884 ft 17 kts 220°
2026-04-21 13:33 -1.96681 30.12889 4882 ft 18 kts 270°
2026-04-21 13:33 -1.96660 30.12762 4880 ft 19 kts 280°
2026-04-21 13:33 -1.96638 30.12634 4883 ft 18 kts 279°
2026-04-21 13:33 -1.96620 30.12513 4884 ft 17 kts 278°
2026-04-21 13:34 -1.96634 30.12421 4883 ft 8 kts 259°
2026-04-21 13:34 -1.96600 30.12396 4885 ft 7 kts 23°
2026-04-21 13:34 -1.96596 30.12409 4885 ft 0 kts 98°
2026-04-21 13:34 -1.96600 30.12435 4885 ft 23 kts 98°
2026-04-21 13:35 -1.96666 30.12816 4880 ft 86 kts 100°
2026-04-21 13:35 -1.96801 30.13588 4890 ft 138 kts 100°
2026-04-21 13:35 -1.96995 30.14692 4882 ft 183 kts 100°
2026-04-21 13:35 -1.97223 30.15972 5410 ft 185 kts 101°
2026-04-21 13:36 -1.97451 30.17249 6140 ft 187 kts 102°
2026-04-21 13:36 -1.97675 30.18533 6692 ft 194 kts 101°
2026-04-21 13:36 -1.97915 30.19898 6857 ft 204 kts 101°
2026-04-21 13:36 -1.97959 30.21362 6939 ft 220 kts 75°
2026-04-21 13:37 -1.97056 30.22635 7073 ft 239 kts 36°
2026-04-21 13:37 -1.95562 30.23513 7194 ft 256 kts 38°
2026-04-21 13:37 -1.94047 30.24538 7407 ft 268 kts 36°
2026-04-21 13:37 -1.92543 30.25701 7632 ft 278 kts 45°
2026-04-21 13:38 -1.91153 30.27070 8081 ft 281 kts 49°
2026-04-21 13:38 -1.89813 30.28506 8580 ft 283 kts 49°
2026-04-21 13:38 -1.88477 30.29961 9053 ft 285 kts 49°
2026-04-21 13:38 -1.87144 30.31397 9584 ft 286 kts 49°
2026-04-21 13:39 -1.85774 30.32847 10070 ft 287 kts 48°
2026-04-21 13:39 -1.84371 30.34314 10304 ft 299 kts 48°
2026-04-21 13:39 -1.82891 30.35848 10421 ft 314 kts 48°
2026-04-21 13:39 -1.81337 30.37447 10540 ft 327 kts 48°
2026-04-21 13:40 -1.79714 30.39108 10656 ft 340 kts 47°
2026-04-21 13:40 -1.78031 30.40829 10761 ft 352 kts 48°
2026-04-21 13:40 -1.76287 30.42609 10879 ft 363 kts 47°
2026-04-21 13:40 -1.74491 30.44437 10991 ft 373 kts 47°
2026-04-21 13:41 -1.72647 30.46310 11110 ft 382 kts 47°
2026-04-21 13:41 -1.70766 30.48224 11280 ft 388 kts 47°
2026-04-21 13:41 -1.68866 30.50161 11574 ft 391 kts 47°
2026-04-21 13:41 -1.66957 30.52111 11932 ft 392 kts 47°
2026-04-21 13:42 -1.65044 30.54071 12255 ft 394 kts 47°
2026-04-21 13:42 -1.63148 30.56013 12553 ft 397 kts 47°
2026-04-21 13:42 -1.61216 30.57990 12886 ft 399 kts 47°
2026-04-21 13:42 -1.59273 30.59977 13227 ft 400 kts 47°
2026-04-21 13:43 -1.57323 30.61972 13488 ft 403 kts 47°
2026-04-21 13:43 -1.55360 30.63979 13805 ft 404 kts 47°
2026-04-21 13:43 -1.53388 30.65991 14082 ft 406 kts 47°
2026-04-21 13:43 -1.51410 30.68008 14379 ft 407 kts 47°
2026-04-21 13:44 -1.49429 30.70031 14662 ft 408 kts 47°
2026-04-21 13:44 -1.47437 30.72065 14952 ft 409 kts 47°
2026-04-21 13:44 -1.45445 30.74102 15233 ft 411 kts 47°
2026-04-21 13:44 -1.43461 30.76164 15493 ft 411 kts 48°
2026-04-21 13:45 -1.41513 30.78261 15756 ft 413 kts 49°
2026-04-21 13:45 -1.39575 30.80388 16017 ft 414 kts 49°
2026-04-21 13:45 -1.37642 30.82526 16280 ft 415 kts 49°
2026-04-21 13:45 -1.35702 30.84670 16534 ft 417 kts 49°
2026-04-21 13:46 -1.33750 30.86818 16808 ft 418 kts 49°
2026-04-21 13:46 -1.31780 30.88972 17048 ft 420 kts 49°
2026-04-21 13:46 -1.29801 30.91124 17302 ft 422 kts 48°
2026-04-21 13:46 -1.27811 30.93286 17552 ft 423 kts 48°
2026-04-21 13:47 -1.25817 30.95456 17784 ft 425 kts 48°
2026-04-21 13:47 -1.23818 30.97634 18010 ft 426 kts 48°
2026-04-21 13:47 -1.21807 30.99822 18214 ft 428 kts 48°
2026-04-21 13:47 -1.19789 31.02015 18425 ft 429 kts 48°
2026-04-21 13:48 -1.17764 31.04218 18616 ft 431 kts 48°
2026-04-21 13:48 -1.15732 31.06430 18807 ft 432 kts 48°
2026-04-21 13:48 -1.13727 31.08617 18981 ft 434 kts 48°
2026-04-21 13:48 -1.11687 31.10843 19182 ft 435 kts 48°
2026-04-21 13:49 -1.09637 31.13076 19352 ft 436 kts 48°
2026-04-21 13:49 -1.07582 31.15311 19545 ft 437 kts 48°
2026-04-21 13:49 -1.05522 31.17550 19707 ft 439 kts 48°
2026-04-21 13:49 -1.03455 31.19801 19887 ft 440 kts 48°
2026-04-21 13:50 -1.01386 31.22056 20046 ft 441 kts 48°
2026-04-21 13:50 -0.99314 31.24326 20228 ft 442 kts 49°
2026-04-21 13:50 -0.97287 31.26647 20371 ft 444 kts 50°
2026-04-21 13:50 -0.95300 31.29018 20500 ft 446 kts 51°
2026-04-21 13:51 -0.93325 31.31421 20636 ft 448 kts 52°
2026-04-21 13:51 -0.91353 31.33832 20804 ft 449 kts 52°
2026-04-21 13:51 -0.89367 31.36249 20956 ft 450 kts 52°
2026-04-21 13:51 -0.87368 31.38659 21118 ft 451 kts 51°
2026-04-21 13:52 -0.85352 31.41071 21261 ft 453 kts 51°
2026-04-21 13:52 -0.83323 31.43483 21420 ft 454 kts 51°
2026-04-21 13:52 -0.81285 31.45898 21565 ft 455 kts 51°
2026-04-21 13:52 -0.79245 31.48314 21728 ft 456 kts 51°
2026-04-21 13:53 -0.77195 31.50742 21882 ft 457 kts 51°
2026-04-21 13:53 -0.75141 31.53166 22024 ft 458 kts 51°
2026-04-21 13:53 -0.73085 31.55611 22173 ft 460 kts 51°
2026-04-21 13:53 -0.71033 31.58065 22317 ft 461 kts 51°
2026-04-21 13:54 -0.68980 31.60530 22482 ft 462 kts 51°
2026-04-21 13:54 -0.66921 31.63001 22633 ft 463 kts 51°
2026-04-21 13:54 -0.64834 31.65459 22740 ft 464 kts 50°
2026-04-21 13:54 -0.62696 31.67887 22871 ft 466 kts 50°
2026-04-21 13:55 -0.60520 31.70300 23016 ft 468 kts 49°
2026-04-21 13:55 -0.58356 31.72673 23153 ft 469 kts 49°
2026-04-21 13:55 -0.56158 31.75083 23256 ft 470 kts 49°
2026-04-21 13:55 -0.53960 31.77506 23393 ft 471 kts 49°
2026-04-21 13:56 -0.51765 31.79947 23511 ft 472 kts 49°
2026-04-21 13:56 -0.49583 31.82390 23629 ft 472 kts 49°
2026-04-21 13:56 -0.47391 31.84847 23743 ft 473 kts 49°
2026-04-21 13:56 -0.45204 31.87300 23854 ft 473 kts 49°
2026-04-21 13:57 -0.43013 31.89753 23962 ft 474 kts 50°
2026-04-21 13:57 -0.40816 31.92211 24073 ft 474 kts 49°
2026-04-21 13:57 -0.38617 31.94673 24177 ft 475 kts 49°
2026-04-21 13:57 -0.36418 31.97136 24285 ft 475 kts 49°
2026-04-21 13:58 -0.34244 31.99569 24393 ft 475 kts 49°
2026-04-21 13:58 -0.32039 32.02032 24503 ft 475 kts 49°
2026-04-21 13:58 -0.29831 32.04497 24614 ft 475 kts 49°
2026-04-21 13:58 -0.27630 32.06957 24726 ft 475 kts 49°
2026-04-21 13:59 -0.25422 32.09424 24834 ft 476 kts 49°
2026-04-21 13:59 -0.23217 32.11887 24944 ft 476 kts 49°
2026-04-21 13:59 -0.21013 32.14350 25057 ft 476 kts 49°
2026-04-21 13:59 -0.18807 32.16817 25162 ft 476 kts 49°
2026-04-21 14:00 -0.16605 32.19282 25291 ft 476 kts 49°
2026-04-21 14:00 -0.14404 32.21746 25407 ft 475 kts 49°
2026-04-21 14:00 -0.12204 32.24208 25549 ft 475 kts 49°
2026-04-21 14:00 -0.10002 32.26672 25681 ft 474 kts 49°
2026-04-21 14:01 -0.07807 32.29128 25815 ft 474 kts 49°
2026-04-21 14:01 -0.05608 32.31585 25949 ft 473 kts 49°
2026-04-21 14:01 -0.03413 32.34036 26083 ft 473 kts 49°
2026-04-21 14:01 -0.01220 32.36487 26213 ft 473 kts 49°
2026-04-21 14:02 0.00229 32.38108 26411 ft 473 kts 49°
2026-04-21 14:02 0.03136 32.41357 26563 ft 473 kts 49°
2026-04-21 14:02 0.05331 32.43808 26698 ft 473 kts 49°
2026-04-21 14:03 0.09844 32.48588 26958 ft 473 kts 46°
2026-04-21 14:03 0.12160 32.50919 27084 ft 472 kts 46°
2026-04-21 14:03 0.14490 32.53236 27202 ft 472 kts 46°
2026-04-21 14:03 0.16812 32.55548 27324 ft 472 kts 46°
2026-04-21 14:04 0.19128 32.57875 27443 ft 471 kts 46°
2026-04-21 14:04 0.21426 32.60206 27567 ft 471 kts 46°
2026-04-21 14:04 0.22942 32.61757 27654 ft 471 kts 46°
2026-04-21 14:04 0.25223 32.64097 27771 ft 470 kts 47°
2026-04-21 14:05 0.27503 32.66440 27884 ft 470 kts 47°
2026-04-21 14:05 0.29783 32.68780 28002 ft 470 kts 47°
2026-04-21 14:05 0.32062 32.71117 28133 ft 469 kts 47°
2026-04-21 14:05 0.34344 32.73451 28266 ft 469 kts 46°
2026-04-21 14:06 0.36623 32.75778 28393 ft 469 kts 46°
2026-04-21 14:06 0.38904 32.78104 28523 ft 469 kts 46°
2026-04-21 14:06 0.41186 32.80429 28659 ft 468 kts 46°
2026-04-21 14:06 0.43464 32.82751 28796 ft 468 kts 46°
2026-04-21 14:07 0.45746 32.85079 28929 ft 468 kts 46°
2026-04-21 14:07 0.48016 32.87400 29067 ft 467 kts 46°
2026-04-21 14:07 0.50287 32.89721 29190 ft 467 kts 46°
2026-04-21 14:07 0.52556 32.92038 29329 ft 466 kts 46°
2026-04-21 14:08 0.54823 32.94353 29460 ft 466 kts 46°
2026-04-21 14:08 0.57060 32.96637 29606 ft 466 kts 46°
2026-04-21 14:08 0.59322 32.98949 29743 ft 465 kts 46°
2026-04-21 14:08 0.61581 33.01258 29876 ft 465 kts 46°
2026-04-21 14:09 0.63846 33.03570 29990 ft 464 kts 46°
2026-04-21 14:09 0.66103 33.05871 30093 ft 464 kts 46°
2026-04-21 14:09 0.68361 33.08176 30204 ft 464 kts 46°
2026-04-21 14:09 0.70615 33.10479 30317 ft 464 kts 46°
2026-04-21 14:10 0.72868 33.12782 30430 ft 463 kts 46°
2026-04-21 14:10 0.75124 33.15084 30544 ft 463 kts 46°
2026-04-21 14:10 0.77378 33.17381 30649 ft 463 kts 46°
2026-04-21 14:10 0.79624 33.19672 30785 ft 462 kts 46°
2026-04-21 14:11 0.81877 33.21971 30825 ft 464 kts 46°
2026-04-21 14:11 0.86411 33.26602 30825 ft 468 kts 46°
2026-04-21 14:12 0.90967 33.31261 30821 ft 469 kts 46°
2026-04-21 14:12 0.95496 33.35897 30822 ft 469 kts 46°
2026-04-21 14:13 1.00064 33.40560 30819 ft 469 kts 46°
2026-04-21 14:13 1.04632 33.45228 30817 ft 470 kts 46°
2026-04-21 14:14 1.09202 33.49907 30815 ft 470 kts 46°
2026-04-21 14:14 1.13776 33.54581 30817 ft 470 kts 46°
2026-04-21 14:15 1.18348 33.59247 30813 ft 470 kts 46°